Meteo Giornale » Osservazioni meteo Italia » Roma-Ciampino

ore: 23:50 - Osservazioni Meteo Roma-Ciampino
Lat. 41° 47' N Lon. 12° 35' E Alt. 129 metri s.l.m.

poco_nuvoloso Europe/Rome

15 °C

Poco Nuvoloso

Temp. 24 Ore

15 °C

20 °C

Sud/Sud-Est

16.7 Km/h

Dew point 12 °C

Umidità 82 %

Visibilità  10 Km

Il sole sorge alle ore 06:15

Il sole tramonta alle ore 20:00

Data e Ora Cielo e Fenomeni T °C DP °C Um. % Pres. hPa Vis. km Vento km/h
Ieri h: 23:50 poco_nuvoloso Poco Nuvoloso 15 12 82 1012 10 S/SE 16.7
Ieri h: 23:20 poco_nuvoloso Poco Nuvoloso 16 12 77 1011 10 S/SE 18.5
Ieri h: 22:50 poco_nuvoloso Poco Nuvoloso 16 12 77 1011 10 S/SE 20.3
Ieri h: 22:20 poco_nuvoloso Poco Nuvoloso 16 12 77 1011 10 SE 24
Ieri h: 21:50 poco_nuvoloso Poco Nuvoloso 16 12 77 1010 10 S/SE 22.2
Ieri h: 21:20 nuvoloso Nuvoloso 16 13 82 1010 10 S/SE 20.3
Ieri h: 20:50 nuvoloso Nuvoloso 16 13 82 1009 8 S/SE 20.3
Ieri h: 20:20 nuvoloso Nuvoloso 16 12 77 1009 8 S/SE 16.7
Ieri h: 19:50 nuvoloso Nuvoloso 17 12 72 1009 10 S 16.7
Ieri h: 19:20 nuvoloso Nuvoloso 18 11 63 1008 10 S/SE 20.3
Ieri h: 18:50 nuvoloso Nuvoloso 18 10 59 1008 10 S/SE 16.7
Ieri h: 18:20 nuvoloso Nuvoloso 18 11 63 1008 10 S/SE 18.5
Ieri h: 17:50 poco_nuvoloso Poco Nuvoloso 19 10 55 1007 10 S 18.5
Ieri h: 17:20 poco_nuvoloso Poco Nuvoloso 19 10 55 1007 10 S 22.2
Ieri h: 16:50 poco_nuvoloso Poco Nuvoloso 19 11 59 1007 10 S 20.3
Ieri h: 16:20 nuvoloso Nuvoloso 19 12 63 1007 10 S/SE 24
Ieri h: 15:50 poco_nuvoloso Poco Nuvoloso 19 12 63 1007 10 S/SE 18.5
Ieri h: 15:20 poco_nuvoloso Poco Nuvoloso 20 13 64 1007 10 S 18.5
Ieri h: 14:50 nuvoloso Nuvoloso 19 12 63 1007 10 S 20.3
Ieri h: 14:20 molto_nuvoloso Molto Nuvoloso 18 13 72 1007 10 S 20.3
Ieri h: 13:50 molto_nuvoloso Molto Nuvoloso 19 12 63 1007 10 S 22.2
Ieri h: 13:20 nuvoloso Nuvoloso 19 13 68 1006 10 S 22.2
Ieri h: 12:50 nuvoloso Nuvoloso 19 13 68 1006 8 S/SE 29.6
Ieri h: 12:20 nuvoloso Nuvoloso 19 13 68 1005 8 S 24
Ieri h: 11:50 nuvoloso Nuvoloso 18 14 77 1005 8 S 25.9
Ieri h: 11:20 nuvoloso Nuvoloso 18 13 72 1005 6 S/SE 25.9
Ieri h: 10:50 foschia Foschia 17 13 77 1004 5 S/SE 27.8
Ieri h: 10:20 foschia Foschia 16 13 82 1004 4 S/SE 27.8
Ieri h: 09:50 molto_nuvoloso Molto Nuvoloso 17 13 77 1003 6 S/SE 27.8
Ieri h: 09:20 foschia Foschia 16 13 82 1003 5 SE 27.8
Ieri h: 08:50 coperto_pioggia Pioggia Debole 15 12 82 1003 5 SE 29.6
Ieri h: 08:20 coperto_pioggia Pioggia Debole 15 12 82 1003 5 SE 31.5
Ieri h: 07:50 coperto_pioggia Pioggia Debole 15 11 76 1002 5 SE 33.3
Ieri h: 07:20 coperto_pioggia Pioggia Debole 15 11 76 1002 6 SE 29.6
Ieri h: 06:50 coperto_pioggia Pioggia Debole 15 11 76 1003 6 SE 25.9
Ieri h: 06:20 nuvoloso_temporali Temporale con Pioggia 15 11 76 1003 5 SE 20.3
Ieri h: 05:50 nuvoloso_temporali Temporale nelle Vicinanze 16 10 67 1002 10 SE 24
Ieri h: 05:20 molto_nuvoloso Molto Nuvoloso 16 10 67 1002 10 SE 27.8
Ieri h: 04:50 sereno Sereno 16 10 67 1002 10 SE 29.6
Ieri h: 04:20 nuvoloso Nuvoloso 16 10 67 1002 10 SE 31.5
Ieri h: 03:50 sereno Sereno 16 9 63 1002 10 SE 38.8
Ieri h: 03:20 sereno Sereno 16 9 63 1002 10 SE 42.6
Ieri h: 02:50 sereno Sereno 16 9 63 1002 10 SE 40.7
Ieri h: 02:20 poco_nuvoloso Poco Nuvoloso 16 9 63 1003 10 SE 40.7
Ieri h: 01:50 molto_nuvoloso Molto Nuvoloso 16 10 67 1003 10 S/SE 31.5
Ieri h: 01:20 molto_nuvoloso Molto Nuvoloso 16 10 67 1004 10 SE 27.8
Ieri h: 00:50 molto_nuvoloso Molto Nuvoloso 15 11 76 1004 10 SE 27.8